069  
ASUS46 KSTO 280904  
RWRCA  
 
NORTHERN AND CENTRAL CA REGIONAL WEATHER ROUNDUP  
NATIONAL WEATHER SERVICE SACRAMENTO CA  
200 AM PDT THU OCT 28 2021  
 
NOTE: FAIR INDICATES FEW OR NO CLOUDS BELOW 12,000 FEET WITH NO  
SIGNIFICANT WEATHER AND/OR S TO VISIBILITY
.  
 
CAZ001-003-281000-  
NORTHWEST AREA  
 
CITY SKY/WX TMP DP RH WIND PRES REMARKS
 
CRESCENT CITY FOG 56 54 93 E5 30.30F VSB 3/4  
UKIAH CLOUDY 54 52 93 CALM 30.26S  

 
 
CAZ006-505>513-281000-  
BAY AREA  
 
CITY SKY/WX TMP DP RH WIND PRES REMARKS
 
SANTA ROSA CLEAR 54 54 100 CALM 30.20F  
SAN RAFAEL N/A 58 MM MM MISG  
NAPA CLEAR 56 55 97 CALM 30.20S FOG  
CONCORD CLEAR 58 56 93 SE5 30.20F  
OAKLAND CITY N/A 59 MM MM MISG  
OAKLAND CLEAR 59 57 93 NE3 30.20F  
SAN FRAN CITY N/A 60 MM 90 MISG  
SAN FRAN ARPT PTCLDY 59 55 87 CALM 30.20S  
LIVERMORE CLEAR 57 54 89 E5 30.21S  
HAYWARD CLEAR 60 56 86 NE3 30.19F  
REDWOOD CITY N/A 57 MM 94 MISG  
MOFFETT ARPT CLEAR 59 57 94 CALM 30.20S FOG  
SAN JOSE ARPT CLEAR 58 56 93 SE5 30.20F  

 
CAZ034-037-514>518-281000-  
CENTRAL COAST  
 
CITY SKY/WX TMP DP RH WIND PRES REMARKS
 
WATSONVILLE CLEAR 56 56 100 NW3 30.19F  
SALINAS CLEAR 59 55 87 NW3 30.18F  
MONTEREY CLEAR 61 56 83 E8 30.19S  
SAN LUIS OBISP CLEAR 63 51 65 CALM 30.10F  
SANTA MARIA CLEAR 55 50 83 MISG 30.10F  
HALF MOON BAY FOG 54 54 100 NW3 30.20S VSB<1/4  

 
CAZ015-016-281000-  
NORTHERN SACRAMENTO VALLEY  
 
CITY SKY/WX TMP DP RH WIND PRES REMARKS
 
REDDING CLEAR 59 51 75 N5 30.23F  
RED BLUFF CLEAR 57 51 80 N7 30.24F  
OROVILLE CLEAR 58 53 84 VRB3 30.21S  

 
CAZ016>018-281000-  
SOUTHERN SACRAMENTO VALLEY  
 
CITY SKY/WX TMP DP RH WIND PRES REMARKS
 
AUBURN CLEAR 57 52 82 E8 30.21F  
BEALE AFB CLEAR 55 54 97 NE5 30.19S  
LINCOLN FAIR 50 50 100 E3 30.19S  
MARYSVILLE CLEAR 58 52 80 N3 30.20S  
SAC INTL ARPT CLEAR 56 53 90 CALM 30.19S  
MATHER AIRPORT CLEAR 55 54 94 CALM 30.18F  
DOWNTOWN SAC N/A 57 MM MM MISG  
SAC EXEC ARPT CLEAR 54 53 97 CALM 30.20S  
VACAVILLE CLEAR 58 56 93 SW3 30.21S  
TRAVIS AFB CLEAR 57 55 94 W3 30.20S  

 
CAZ019>021-281000-  
SAN JOAQUIN VALLEY  
 
CITY SKY/WX TMP DP RH WIND PRES REMARKS
 
STOCKTON CLEAR 54 54 100 W7 30.20S  
MODESTO CLEAR 57 56 96 NW7 30.19F  
MERCED CLEAR 56 54 93 CALM 30.21S FOG  
LEMOORE CLEAR 52 48 86 SW6 30.23S  
FRESNO CLOUDY 58 51 78 CALM 30.23S  
HANFORD CLEAR 51 50 96 CALM 30.23F FOG  
PORTERVILLE CLEAR 52 49 89 CALM 30.23F  
BAKERSFIELD CLEAR 55 51 86 E3 30.22S FOG  

 
CAZ011-012-071-281000-  
NORTHERN MOUNTAINS  
 
CITY SKY/WX TMP DP RH WIND PRES REMARKS
 
YREKA CLEAR 45 43 93 N6 30.36S  
MOUNT SHASTA CLEAR 40 37 89 CALM 30.37S  
ALTURAS PTCLDY 44 41 89 S3 30.41S  

 
CAZ011-012-071-281000-  
SIERRA NEVADA MTNS  
 
CITY SKY/WX TMP DP RH WIND PRES REMARKS
 
BLUE CANYON CLEAR 55 37 50 NE9G20 30.35F  
TRUCKEE FOG 32 32 100 CALM 30.48S VSB<1/4  
TAHOE VLY ARPT PTCLDY 31 30 96 CALM 30.46S  
MAMMOTH LAKES FAIR 37 34 87 W10 30.50F WCI 30  

 
 
 
CLICK HERE TO GO TO PREVIOUS BULLETINS.

The Nexlab CA Page Main Text Page